Погода в Шишовке

Россия / Воронежская область     51°14′39″N   40°11′38″E
темп.,
°C
ветер,
м/с
пор.,
м/с
влажн.,
%
обл.,
%
осадки,
мм/ч
давл.,
гПа
погр.,
м
20 апреля, вт
вт2000:00+8в59906 0.2 1016321
03:00+7всв499592 0.2 1015315
06:00+8в5992100 0.3 1014488
09:00+8в71088100 0.3 1014595
12:00+7в7987100 0.0 1013508
15:00+8всв71291100 1.0 1010618
18:00+7в91794100 5.6 1005658
21:00+7в71195100 12.5 1003470
21 апреля, ср
ср2100:00+8ююв51497100 1.3 1002491
03:00+9ю7149291 1.4 1003630
06:00+9ю61189100 0.3 1003723
09:00+7з81190100 0.7 1007651
12:00+9зюз61082100 0.1 1011903
15:00+10зюз5877100 0.2 1012967
18:00+11юз48756 0.6 1013599
21:00+8ююз35826 0.7 101693
22 апреля, чт
чт2200:00+8ююз4987100 0.1 1017313
03:00+7ююз379157 0.1 1017169
06:00+6юз36945 0.1 1019150
09:00+11зюз46690 0.1 1020705
12:00+14зюз455055 0.0 10201608
15:00+15юз4644100 0.0 10202273
18:00+14ю255899 0.0 1020147
21:00+11ююз346799 0.0 102165
23 апреля, пт
пт2300:00+9ююз227212 0.0 102125
03:00+9ю227392 0.0 102115
06:00+10ю367683 0.0 1021121
09:00+14ююз465897 0.0 1021468
12:00+17ююз4641100 0.0 10202326
15:00+18ююз563998 0.0 10182405
18:00+15юз475762 0.0 1018408
21:00+12ю366286 0.0 1017103
24 апреля, сб
сб2400:00+10ю377650 0.0 1016130
03:00+9ю388179 0.2 1015173
06:00+10ю3682100 0.0 1014178
09:00+12ююз5867100 0.0 1013705
12:00+6зсз81190100 1.8 1014431
15:00+7зсз4780100 3.6 1014917
18:00+9зсз256875 0.3 1014829
21:00+7юз337681 0.4 101443